GW7287 Weather Reports


time (UTC)temp
F
wind
direction
speed
knots
gust
knots
rain 1hr
in
rain 24hr
in
rain mn
in
humidity
%
barometer
mb
20260507055326 47 336 0.9 4.3 0.00 0.00 0.00 87 925.5
20260507050306 48 345 0.9 2.6 0.00 0.00 0.00 85 925.5
20260507020303 50 333 0.9 4.3 0.00 0.00 0.00 80 926.0
20260507012306 51 11 0.9 3.5 0.00 0.00 0.00 73 926.3
20260506234125 52 6 0.9 6.1 0.00 0.00 0.00 67 926.3
20260506233431 52 6 0.9 6.1 0.00 0.00 0.00 67 926.3
20260506224503 53 334 0.9 4.3 0.00 0.00 0.00 63 926.3
20260506222610 55 69 0.9 1.7 0.00 0.00 0.00 58 926.6
20260506214421 55 69 0.9 4.3 0.00 0.00 0.00 58 926.6
20260506210402 56 354 0.9 4.3 0.00 0.00 0.00 57 926.2
20260506204445 56 354 0.9 1.7 0.00 0.00 0.00 57 926.2
20260506201239 50 4 1.7 3.5 0.00 0.00 0.00 73 929.0
20260506193740 59 344 0.9 3.5 0.00 0.00 0.00 48 925.9
20260506192406 45 19 0.9 2.6 0.00 0.00 0.00 82 929.1
20260506180601 40 327 0.9 1.7 0.00 0.00 0.00 93 928.8
20260506172904 40 4 0.9 2.6 0.00 0.00 0.00 93 928.4
20260506155801 41 342 1.7 2.6 0.00 0.00 0.00 90 928.9
20260506155310 41 342 1.7 2.6 0.00 0.00 0.00 90 928.9
20260506105603 46 293 1.7 3.5 0.00 0.00 0.00 79 929.3
20260506104602 46 293 1.7 3.5 0.00 0.00 0.00 79 929.3